Location: Rowland
(34.5359°N, 79.2929°W)
Time: 15:39:20
(UTC+00:00)

A-11 Canister half - Pass Details

Date: 03 October 2022
Orbit: 1515 x 1684 km, 47.2° (Epoch: 06 December)

Event Time Altitude Azimuth Distance (km) Brightness Sun altitude
Exits shadow 08:00:07 67° 104° (ESE) 1,621 9.0 -39.5°
Drops below altitude 10° 08:07:55 10° 123° (ESE) 3,678 11.3 -38.1°
Sets 08:10:57 0° 124° (SE) 4,668 11.9 -37.5°
